Lapse_Rate
4.8 4.8 4.8 4.7 4.8 5.0 5.1 5.2 5.4 5.5 5.7 5.8 6.1 6.3 6.5 6.7 6.6 6.6 6.6 6.7 6.9 7.0 7.1 7.2 7.1 7.2 7.2 7.2 7.4 7.6 7.4 8.5 8.4 8.0 7.4 7.1 6.9 6.6 6.6 6.5 6.4 6.5 6.5 6.9 6.8
4.9 5.0 4.9 4.9 5.0 5.1 5.3 5.3 5.4 5.5 5.8 5.9 6.1 6.2 6.4 6.7 6.7 6.5 6.5 6.8 7.1 7.0 7.1 7.0 7.2 7.1 7.1 7.1 7.2 7.5 7.7 8.4 8.0 7.8 7.6 7.2 7.1 6.8 6.5 6.3 6.6 6.5 6.4 6.7 6.6
5.0 5.0 5.2 5.3 5.4 5.4 5.4 5.5 5.6 5.7 5.9 6.0 6.2 6.3 6.4 6.7 6.8 6.4 6.8 6.9 7.3 7.0 6.9 6.9 7.1 7.1 7.2 7.2 7.3 7.4 7.7 8.0 7.7 7.8 7.7 7.3 7.4 6.9 6.9 6.7 6.4 6.5 6.4 6.5 6.7
5.3 5.3 5.4 5.5 5.6 5.7 5.6 5.6 5.7 5.8 6.0 6.1 6.2 6.3 6.4 6.7 7.0 6.7 6.7 6.9 7.2 7.1 7.0 6.9 7.2 7.1 7.0 7.2 7.2 7.4 7.7 7.5 7.5 7.8 7.8 7.3 7.4 7.2 7.1 7.1 6.6 6.6 6.5 6.3 6.5
5.7 5.8 5.8 5.8 5.9 5.9 5.7 5.7 5.8 5.9 6.0 6.1 6.3 6.4 6.5 6.8 7.1 6.7 6.6 6.9 7.3 7.2 7.1 7.1 7.1 6.9 6.9 7.0 7.3 7.7 7.5 7.5 7.4 7.7 7.8 7.6 7.2 7.1 7.0 6.9 6.9 6.6 6.6 6.5 6.4
5.9 5.9 6.0 6.1 6.0 6.0 5.8 5.7 5.8 5.9 6.1 6.3 6.4 6.5 6.7 7.1 7.1 7.0 6.7 6.8 7.3 7.2 7.1 7.0 6.7 6.8 6.8 7.2 7.1 7.4 7.3 7.4 7.6 7.3 7.8 7.7 7.2 7.2 7.0 7.1 7.0 6.7 6.5 6.5 6.7
5.8 6.0 6.1 6.1 6.1 6.0 5.9 5.9 6.0 6.1 6.2 6.4 6.5 6.6 7.0 7.4 7.1 7.1 6.9 6.8 7.0 7.1 6.8 6.9 6.7 7.0 7.0 6.8 7.2 7.4 7.6 7.8 7.7 7.6 7.6 7.8 7.4 7.0 7.3 7.0 7.0 6.6 6.7 6.7 6.9
5.5 5.7 5.8 6.0 6.1 6.1 6.0 6.1 6.2 6.2 6.4 6.5 6.7 6.8 7.4 7.2 7.1 7.2 7.0 6.9 7.0 7.3 7.4 7.0 7.3 6.8 7.2 7.3 7.2 7.4 7.5 8.6 8.2 7.7 8.0 8.2 8.4 7.8 7.5 7.2 6.9 6.8 6.7 6.7 6.9
5.4 5.5 5.6 5.7 5.9 5.9 5.9 6.1 6.3 6.4 6.5 6.6 6.9 6.8 7.5 7.3 7.3 7.2 7.1 7.0 7.1 7.2 7.2 7.1 7.3 7.0 7.3 7.0 7.1 7.5 8.7 8.5 8.4 7.7 7.8 8.0 8.2 8.0 7.5 7.3 7.3 6.9 6.8 6.8 6.9
5.2 5.3 5.4 5.6 5.7 5.6 5.7 6.0 6.3 6.5 6.5 6.6 6.8 6.8 7.6 7.4 7.3 7.2 7.2 7.1 7.2 7.3 7.2 7.1 7.2 7.4 7.3 6.8 6.7 7.8 8.6 8.6 8.9 8.1 7.8 8.0 7.8 8.0 7.7 7.0 7.3 7.1 6.9 6.8 7.0
5.3 5.3 5.3 5.4 5.7 5.7 5.5 5.8 6.0 6.2 6.5 6.7 6.8 7.2 7.6 7.4 7.3 7.4 7.3 7.2 7.2 7.0 7.3 7.1 7.5 7.7 8.1 7.2 7.1 7.7 8.0 8.7 8.3 8.1 8.0 8.7 8.0 7.7 7.8 7.3 7.3 7.0 7.1 6.9 6.8
5.3 5.4 5.3 5.4 5.5 5.5 5.6 5.5 5.8 5.9 6.3 6.6 6.7 7.1 7.3 7.3 7.0 7.1 7.4 7.3 7.2 7.4 7.7 7.3 7.4 8.4 7.8 7.2 7.3 7.9 7.7 8.7 8.4 8.0 8.0 8.7 8.2 7.7 7.5 7.3 7.1 6.6 6.8 6.6 6.6
5.3 5.2 5.3 5.5 5.4 5.4 5.5 5.7 5.6 5.8 5.9 6.6 6.9 7.1 7.1 6.9 6.8 6.7 7.4 7.5 7.5 7.8 7.9 7.8 8.3 8.3 7.6 7.6 7.6 7.9 8.0 7.7 8.1 8.0 7.9 8.2 8.7 8.0 7.2 7.3 7.3 7.0 6.9 6.9 7.0
5.5 5.5 5.4 5.3 5.5 5.4 5.6 5.6 5.6 5.8 5.7 6.6 7.0 7.3 7.0 7.0 6.6 6.6 7.3 7.4 7.7 8.0 8.1 8.0 8.4 8.0 7.8 7.7 7.9 7.0 7.0 7.2 7.6 8.1 9.5 8.3 9.6 8.9 8.0 7.5 7.3 6.8 7.4 7.5 7.3
5.5 5.9 5.6 5.5 5.2 5.6 5.6 5.6 5.7 5.9 7.3 6.7 6.4 6.9 7.1 6.6 7.3 6.8 7.2 7.1 7.7 7.9 8.2 7.8 8.1 8.0 7.9 8.1 8.1 7.5 6.9 7.2 7.4 8.2 9.3 8.8 9.3 9.4 8.4 7.7 7.3 7.1 7.0 7.3 7.3
5.4 5.8 5.9 5.7 5.6 5.8 5.6 5.6 5.8 5.9 7.2 6.8 6.5 6.5 6.8 6.7 7.1 7.3 7.0 7.2 7.8 8.1 8.0 8.4 8.0 8.3 8.2 8.1 7.4 7.4 7.1 6.9 7.2 8.5 9.5 9.4 9.3 9.5 8.7 8.0 8.2 7.8 7.6 7.6 7.5
5.7 6.0 6.2 5.9 5.9 5.7 5.6 5.6 5.8 6.8 7.1 7.1 6.9 6.4 6.7 6.5 6.9 6.8 7.0 7.0 7.5 7.8 7.9 8.1 7.9 8.3 8.2 7.4 7.1 7.3 6.5 6.1 8.2 9.2 9.8 9.4 9.4 9.4 9.4 8.9 8.7 8.3 8.1 8.2 7.9
6.1 6.3 6.3 6.1 6.0 5.8 5.6 5.5 6.5 7.0 7.3 6.7 6.7 6.7 6.9 6.9 6.9 7.2 7.2 7.3 7.6 8.0 8.4 8.1 8.2 7.5 7.9 7.8 7.4 6.9 6.4 5.9 8.4 9.6 9.8 8.7 8.8 9.1 8.5 8.5 8.4 8.5 8.7 8.2 8.2
6.3 6.4 6.3 6.1 5.9 5.7 5.6 5.7 6.8 7.2 6.7 6.9 7.1 7.3 7.4 7.0 7.1 7.3 7.5 7.6 7.8 7.9 8.5 8.8 8.7 8.0 7.8 7.8 7.6 6.1 6.3 7.3 6.5 8.3 9.1 9.2 8.5 8.5 8.6 8.7 8.5 8.6 8.8 8.8 8.6
6.4 6.3 6.1 6.1 5.9 5.6 5.3 6.1 6.9 6.5 6.6 6.9 7.7 7.2 7.8 7.5 7.2 7.5 7.6 7.7 8.0 8.1 8.6 9.3 9.4 7.7 7.2 7.2 7.7 7.2 7.4 6.9 7.1 7.4 8.9 9.4 9.1 9.2 8.9 8.8 8.8 8.6 8.9 9.0 9.1
6.4 6.3 6.1 6.1 5.8 5.6 5.5 6.3 6.4 6.5 6.6 6.9 7.1 7.3 7.2 7.4 7.6 7.8 8.1 8.2 8.3 8.3 8.4 9.3 9.2 8.7 7.1 7.1 7.5 7.0 6.7 6.8 7.0 7.5 8.4 9.5 9.3 8.7 8.6 8.7 8.5 8.6 8.8 8.9 9.1
6.3 5.5 6.2 6.2 5.7 5.3 5.9 6.0 6.1 6.4 6.6 6.7 6.8 7.1 7.1 7.1 7.5 7.7 8.1 8.4 8.3 8.6 8.5 9.0 9.3 9.2 7.5 8.0 8.0 7.7 7.9 7.9 7.0 7.6 8.4 8.8 8.9 8.3 8.1 8.3 8.4 8.7 8.6 8.8 9.1
6.2 6.0 6.1 6.1 6.0 6.0 5.9 5.9 5.9 6.6 6.7 6.9 7.0 7.0 7.0 7.2 7.4 7.5 7.7 8.2 7.8 8.6 8.5 8.9 9.2 9.3 8.9 7.5 7.3 7.8 8.0 7.8 8.3 7.7 7.3 9.4 9.2 9.1 8.4 8.4 8.5 8.6 8.6 8.8 8.7
6.0 5.5 5.6 5.7 5.8 5.6 5.7 6.3 6.4 6.4 6.6 6.6 6.8 7.0 7.1 7.2 7.4 7.4 7.8 7.8 8.1 8.3 8.6 8.8 9.3 9.3 9.4 8.9 8.5 7.7 7.9 7.7 8.0 8.4 8.6 9.0 9.2 8.5 8.5 8.4 8.6 8.5 8.3 8.4 8.5
5.7 5.7 5.7 5.6 5.5 5.9 5.8 6.1 6.5 6.7 6.6 6.5 6.8 7.0 7.4 7.4 7.5 7.7 7.9 7.9 8.0 8.2 8.4 8.5 9.2 9.3 9.3 9.3 9.3 9.2 8.4 8.2 8.2 7.6 8.6 8.9 8.8 9.1 8.7 8.3 8.3 8.5 8.3 8.2 8.4
5.6 5.6 5.7 5.8 5.9 5.9 5.8 6.2 6.4 6.4 6.8 6.9 6.6 6.5 6.8 7.0 7.7 8.0 7.4 7.8 8.6 8.2 8.3 8.6 8.8 9.2 9.3 9.3 9.3 9.3 9.3 9.1 8.4 8.2 8.0 9.1 9.0 9.1 8.7 8.6 8.6 8.7 8.4 8.4 8.5
5.9 5.8 5.6 5.5 5.3 5.6 5.8 5.6 5.9 6.8 6.8 6.8 6.5 6.5 6.6 6.9 6.7 6.9 6.8 7.2 7.1 7.3 8.3 8.6 8.9 8.8 9.1 9.4 9.4 9.4 8.4 8.7 9.2 9.3 9.2 9.3 9.2 9.0 8.5 8.8 8.7 8.4 8.2 8.3 8.4
Wind_Speed
18 18 19 19 19 20 20 20 20 19 19 20 20 20 19 18 20 6 9 3 10 28 20 16 16 11 14 7 6 6 5 3 4 2 6 9 9 7 5 10 3 4 2 19 23
18 18 18 19 19 20 21 21 21 20 20 21 21 20 19 18 9 12 6 14 30 27 24 20 17 15 7 7 4 6 7 2 4 3 3 6 8 10 9 11 7 10 15 23 25
19 19 19 19 20 20 21 22 22 22 21 20 21 21 20 19 8 7 6 17 28 30 18 17 16 15 11 6 7 3 8 1 2 0 3 3 8 11 10 10 10 14 21 24 25
20 20 20 20 21 21 22 22 22 23 22 21 21 22 22 6 5 7 8 17 26 21 14 14 16 15 10 9 8 9 12 9 2 1 6 6 4 9 10 5 8 17 23 24 25
20 20 21 21 22 23 24 24 24 23 22 21 19 20 9 8 11 5 7 13 21 20 20 16 15 14 11 6 7 13 12 7 8 4 8 4 9 5 11 6 10 20 22 23 22
20 21 21 23 24 25 25 25 25 25 23 21 18 16 6 13 3 4 2 15 19 19 17 15 11 12 6 6 10 6 10 11 9 9 8 11 10 7 7 8 14 19 21 21 22
21 21 22 23 23 25 26 26 27 25 25 22 13 5 10 17 3 1 8 14 14 17 12 13 7 10 6 7 6 9 11 13 12 9 6 11 8 11 11 13 16 18 18 19 20
22 22 23 23 24 25 27 29 28 28 22 12 7 6 9 2 6 12 6 11 11 10 8 8 8 5 6 1 6 9 5 11 7 7 4 11 11 10 13 15 16 17 17 18 20
21 22 23 24 24 26 28 29 30 16 9 7 8 8 10 7 9 16 16 14 10 9 7 8 9 7 5 5 2 11 9 10 8 3 5 9 12 11 12 13 14 15 17 18 18
22 22 23 24 24 26 29 32 10 7 5 6 4 6 9 6 9 7 16 15 14 13 12 12 9 10 8 6 5 16 8 7 4 3 1 7 10 12 13 13 14 15 17 18 19
22 22 23 24 25 25 18 5 5 6 9 12 5 12 3 6 4 10 14 18 15 16 15 16 12 14 16 11 9 4 5 4 3 3 6 4 6 11 14 13 14 15 17 18 18
22 22 24 25 27 27 10 5 4 6 9 19 20 16 11 2 10 12 15 18 18 20 18 10 17 16 4 7 13 14 8 5 6 1 7 7 6 10 14 14 14 15 17 18 18
23 23 23 25 30 8 6 8 2 8 7 9 16 19 18 15 11 17 20 24 23 23 20 19 13 15 11 12 11 13 9 2 10 8 10 6 11 11 12 13 15 14 15 16 19
24 22 21 27 10 6 4 3 1 5 6 10 9 9 13 13 16 16 20 19 18 25 20 21 13 8 16 14 11 8 3 6 13 7 12 11 11 16 15 15 16 17 18 18 19
23 22 17 9 12 4 4 2 6 4 6 9 9 5 5 17 9 25 18 20 20 20 19 19 18 18 12 15 14 10 7 11 16 9 10 12 11 13 17 14 16 19 20 20 21
27 23 15 9 6 9 8 7 4 6 9 6 7 10 12 19 15 18 25 20 18 21 17 20 10 15 16 5 2 14 7 12 18 12 12 16 15 13 16 16 17 19 20 22 22
30 25 11 6 1 2 5 5 7 9 4 7 5 9 14 11 21 16 26 24 20 21 19 21 15 11 7 13 9 11 8 4 6 8 9 17 11 15 8 12 14 19 20 22 22
34 21 5 8 6 10 4 8 11 5 14 2 2 5 10 11 21 21 24 25 26 24 15 18 19 16 14 13 11 18 16 9 4 10 13 7 9 11 12 11 11 10 14 16 21
28 3 3 4 8 3 6 13 8 5 2 4 8 9 8 11 6 22 24 27 28 25 22 19 19 24 17 9 15 9 10 18 13 11 6 10 13 6 10 8 10 13 10 11 14
5 2 7 2 7 6 8 15 11 4 6 4 7 2 2 8 12 22 23 24 29 28 21 12 16 17 8 11 7 11 12 11 5 7 9 6 9 8 12 12 9 10 9 8 10
5 3 5 8 5 5 10 15 14 9 6 5 1 2 2 1 8 15 18 16 27 27 24 21 16 16 15 16 17 6 10 7 4 14 8 10 9 9 3 1 4 4 1 3 4
4 2 5 2 5 4 10 6 3 14 6 7 6 6 7 7 7 6 18 20 18 24 26 25 13 15 19 19 15 19 15 16 9 13 9 12 1 8 0 1 4 6 4 4 4
6 2 3 4 4 6 7 10 11 13 13 14 11 5 4 6 5 4 5 6 6 23 25 22 19 15 15 9 11 21 18 15 21 21 14 13 9 5 1 2 2 3 4 5 4
5 2 4 5 3 7 4 8 8 6 11 10 13 10 12 13 12 8 5 1 5 16 7 22 18 23 16 18 17 16 18 24 21 15 18 14 15 8 12 12 5 5 7 6 6
3 3 3 3 3 8 8 5 7 5 3 5 8 14 12 12 11 15 13 9 12 6 8 19 21 24 22 19 17 21 19 23 24 24 17 18 16 16 10 8 11 6 6 6 6
6 5 5 8 6 8 5 5 6 5 4 4 8 3 5 10 12 9 5 10 3 9 11 19 19 20 24 20 22 19 20 24 25 24 23 21 18 12 3 5 8 8 7 6 8
5 2 3 3 5 6 2 4 3 5 5 7 6 8 10 7 10 12 13 15 15 9 6 10 13 11 19 20 22 23 28 25 23 23 23 21 17 11 14 11 9 9 10 12 12
Wind_Direction
349 348 345 344 343 340 338 336 334 334 330 328 327 325 322 322 302 211 249 120 172 161 159 155 174 184 184 212 223 241 251 265 60 357 105 154 162 165 111 142 143 115 81 129 149
347 344 343 341 340 337 334 332 330 329 327 326 324 324 321 323 284 260 129 119 144 169 170 170 177 175 201 221 213 248 279 59 45 56 115 152 203 167 186 156 147 114 111 137 152
345 343 341 340 337 334 330 327 326 324 323 323 322 322 319 315 281 117 73 149 163 177 174 186 174 179 224 217 206 216 274 45 126 281 210 166 208 177 207 189 172 155 144 153 158
342 340 339 337 333 329 327 324 321 319 318 319 321 319 314 264 287 86 74 156 169 193 190 187 182 200 223 218 222 248 248 264 290 232 211 220 171 193 205 100 139 148 155 160 167
341 338 335 332 330 327 324 321 317 315 314 315 316 316 304 243 254 84 135 156 169 195 190 181 188 215 238 250 215 243 263 255 256 244 225 245 208 206 199 127 142 144 160 166 172
339 335 331 329 328 323 321 319 314 312 311 309 305 305 258 257 28 290 186 169 177 193 197 199 205 225 279 239 236 324 278 264 267 233 219 227 220 193 141 158 145 157 166 173 175
336 333 329 327 326 323 320 317 312 309 306 300 287 254 254 245 41 97 175 175 188 200 198 209 223 216 180 222 240 274 267 226 226 218 221 216 178 201 141 161 156 162 169 175 177
334 332 329 327 325 321 318 315 310 307 299 285 229 213 257 186 256 234 182 171 187 205 246 193 199 242 260 330 240 259 265 218 145 201 156 214 121 137 162 164 162 162 170 177 179
332 330 329 326 324 321 317 311 307 299 309 172 186 236 262 114 215 221 211 178 165 189 192 171 209 234 190 233 339 248 215 226 141 119 161 229 117 146 171 167 162 169 172 179 181
332 330 328 326 323 320 319 301 292 275 215 228 265 226 229 221 189 200 203 216 197 177 170 187 200 219 208 174 212 236 196 184 177 97 195 188 114 154 173 178 168 174 177 183 186
331 329 325 324 322 320 322 282 219 194 211 225 202 226 76 195 184 193 179 189 198 192 201 198 209 216 217 207 223 284 289 215 199 303 264 156 167 175 177 187 176 178 184 188 192
329 327 326 323 319 315 282 256 15 346 286 229 245 245 260 312 200 187 184 181 193 199 210 179 224 225 121 194 257 246 253 231 275 19 242 195 202 168 181 192 183 187 186 192 189
326 324 322 321 314 288 280 264 345 326 259 247 223 227 225 214 219 186 194 202 193 205 200 215 217 214 199 202 240 243 235 222 312 295 246 239 230 172 178 196 189 189 188 193 193
326 322 326 327 285 339 261 160 277 309 269 196 199 225 201 209 221 220 202 201 207 211 200 225 200 189 206 227 220 232 175 317 295 252 212 207 215 200 176 198 197 193 190 192 192
321 316 318 329 306 257 38 152 308 203 266 109 144 112 173 200 178 195 197 210 220 206 210 209 222 200 212 213 214 181 68 338 295 255 265 190 252 182 194 197 199 200 198 198 193
318 309 303 276 224 261 303 282 223 220 240 159 141 178 170 208 216 174 192 219 227 213 206 225 203 216 220 190 248 134 84 333 265 248 223 211 215 223 184 209 207 198 201 201 197
319 307 271 245 157 129 304 220 206 237 109 167 179 184 207 178 206 186 187 197 202 204 202 218 185 205 211 116 150 150 81 286 207 205 220 205 201 248 161 200 215 192 198 200 201
323 316 145 205 230 259 255 211 230 204 226 69 259 222 232 189 207 197 191 197 210 208 201 205 200 176 199 184 183 160 146 241 197 202 203 138 226 222 236 242 197 230 198 190 202
312 148 145 151 229 246 234 212 222 243 344 262 265 251 189 203 239 203 207 204 204 210 223 201 219 178 179 163 155 158 185 239 262 276 288 169 229 275 220 213 195 200 196 209 219
311 254 34 346 182 206 226 238 234 309 310 261 248 308 199 194 207 198 199 207 206 211 220 202 212 173 147 143 61 187 154 222 230 273 223 180 237 236 182 198 199 190 205 227 230
254 232 60 111 190 211 227 234 249 247 283 296 203 276 312 336 267 205 214 204 212 199 219 222 221 157 165 206 174 147 165 192 296 277 268 236 205 206 182 75 174 160 137 242 233
291 266 141 256 221 212 239 249 349 263 214 264 281 277 287 308 280 258 225 209 209 207 206 218 206 187 203 203 219 205 189 182 221 249 248 291 62 132 246 155 95 106 135 144 82
324 342 151 234 269 211 221 254 248 265 250 249 248 241 294 291 304 268 237 247 272 213 206 208 231 219 161 168 209 219 195 195 193 251 269 251 238 156 160 287 348 129 128 102 131
295 268 154 223 288 296 307 248 260 212 259 268 258 261 258 255 257 274 284 244 207 234 161 221 216 233 212 210 187 204 216 195 208 219 249 239 257 250 257 262 198 165 147 148 150
350 45 16 294 184 311 287 287 270 269 240 251 240 243 262 252 242 251 255 263 234 203 227 224 221 237 231 255 207 196 206 211 209 224 242 253 239 229 238 244 258 191 173 171 162
347 344 338 285 277 274 230 237 267 295 277 224 258 54 254 256 254 331 0 269 4 185 208 210 222 234 245 229 244 231 225 220 215 225 237 250 263 271 301 264 223 232 222 205 179
5 331 311 285 289 269 278 313 304 327 244 264 316 306 271 335 343 304 290 283 279 294 278 198 222 212 234 229 238 239 224 230 235 228 225 239 247 252 259 226 238 238 239 201 176